Meath Environmental Platform

Observations for Trim Patrick St

Time AQI Temp °C Hum % Pres Pa CO μg/m³ H₂S μg/m³ NO μg/m³ NO₂ μg/m³ O₃ μg/m³ SO₂ μg/m³ PM1 μg/m³ PM2.5 μg/m³ PM10 μg/m³
Saturday 8 August 2026
10:49 1 24.8 48 69,114 0 0 1.83 10.75 59.47 6.52 3.71 8.07 8.87
10:48 1 24.8 48 69,130 0 1.67 1.68 11.68 70.65 7.36 2.86 8.08 8.89
10:45 1 24.8 48 69,155 0 0 1.8 11.6 60.33 7.04 2.86 7.31 8.04
10:43 1 24.7 48 69,149 0 0 1.95 11.54 62.74 6.57 2 7.29 8.02
10:42 1 24.7 48 69,143 0 0 1.79 11.83 62.29 6.32 2 7.34 8.07
10:41 1 24.7 48 69,138 0 0 1.78 11.87 67.71 6.42 2 6.57 7.23
10:38 1 24.7 48 69,116 0 0 1.81 11.56 71.18 6.11 2 6.57 7.23
10:37 1 24.7 48 69,102 0 0 1.85 10.48 67.4 6.71 3.71 8.1 8.91
10:36 1 24.7 47 69,086 0 0 1.88 10.67 69.34 6.36 2.86 7.37 8.11
10:35 1 24.7 47 69,092 0 0 1.73 10.44 65.7 6.66 2.86 8.14 8.96
10:34 1 24.7 47 69,074 0 0 1.93 9.34 63.2 6.36 2 7.39 8.12
10:33 1 24.7 47 69,078 0 0 1.88 10.92 68.61 6.31 2 6.6 7.26
10:32 1 24.7 47 69,051 0 0 1.88 10.24 65.84 6.09 2.86 7.37 8.11
10:31 1 24.8 47 69,051 0 0 1.81 9.99 63.22 6.32 2.86 7.39 8.12
10:30 1 24.8 47 69,047 0 0 1.89 10.74 64.24 6.34 2 7.39 8.12
10:29 1 24.7 47 69,069 0 0 1.78 10.04 56.23 6.4 2 7.37 8.11
10:28 1 24.8 47 69,072 0 0 1.89 11.08 65.47 6.01 3.71 8.94 9.83
10:27 1 24.8 47 69,076 0 0 1.94 9.7 63.08 6.65 2 7.39 8.12
10:26 1 24.8 47 69,084 0 0 1.9 9.73 66.12 6.35 2 7.39 8.12
10:25 1 24.8 46 69,065 0 0 1.83 9.63 63.98 6.18 2 6.66 7.33